Погода в Юксарах

Россия / Республика Марий Эл     56°19′00″N   47°02′08″E
В апреле 2022 года жителям России запретили посещать сайт meteo.paraplan.net по решению Генеральной прокуратуры. Аудитория сайта уменьшилась в 10 раз. Владельцы сайта не видят смысла в поддержке погодного сервера в таких условиях. Сайт будет закрыт в октябре.
темп.,
°C
ветер,
м/с
пор.,
м/с
влажн.,
%
обл.,
%
осадки,
мм/ч
давл.,
гПа
погр.,
м
25 сентября, вс
вс2500:00+11ю2771100 0.0 1008319
03:00+9ююв2582100 0.0 1009145
06:00+8ююв2687100 0.0 1009128
09:00+11юв3568100 0.0 1008309
12:00+13вюв3457100 0.0 1007894
15:00+13в3358100 0.0 10061009
18:00+10всв3677100 0.0 1005228
21:00+8всв1185100 0.0 100420
26 сентября, пн
пн2600:00+8св0086100 0.1 100321
03:00+8ююз1187100 0.1 100324
06:00+6ююз2493100 0.1 1004116
09:00+10юз347654 0.1 1006503
12:00+12ююз336273 0.3 10071068
15:00+12ююв226363 1.0 1008973
18:00+9ююв117761 0.3 101012
21:00+7юв118722 0.3 101110
27 сентября, вт
вт2700:00+7ссз1184100 0.0 101215
03:00+8св0085100 0.0 101213
06:00+7ссв1187100 0.0 101317
09:00+9ссв1177100 0.0 1014286
12:00+11св226787 0.4 1015683
15:00+11ссв236993 0.8 1016753
18:00+8св268986 0.3 1017243
21:00+7св3691100 0.3 1018320
28 сентября, ср
ср2800:00+6св259290 0.0 1018279
03:00+6св369195 0.0 1018353
06:00+5св3590100 0.0 1019419
09:00+5всв3591100 0.0 1019569
12:00+5всв4690100 0.0 1020636
15:00+5всв4888100 0.1 1019638
18:00+5в41087100 0.0 1020640
21:00+5в41178100 0.0 1020675
29 сентября, чт
чт2900:00+4в51268100 0.0 1019607
03:00+2в51375100 0.0 1020599
06:00+1в61376100 0.0 1020640
09:00+3в61365100 0.0 1020755
12:00+6в71052100 0.0 10201030
15:00+8в61150100 0.0 10201217
18:00+5в5116044 0.0 1022922
21:00+3всв5136665 0.0 1023724